sat.trackr.live / text

‹ back to catalog

STARLINK-36450

NORAD 67317 · 2026-002N

PAYLOAD ACTIVE UNKNOWN

§ Identity

Operator
Country
US
Launch date
2026-01-04
Launch site
AFETR
Launch vehicle
Mass (kg)
RCS (m²)

Purposes: comms

External: N2YO · Heavens-Above · Gunter

§ Orbital elements

Epoch: 2026-09-19T10:07:37.220448Z

Period
94.27 min
Inclination
43.0005°
Eccentricity
0.0000778
Mean motion
15.27591635 rev/d
Perigee alt
482.5 km
Apogee alt
483.5 km
Semi-major
6,861.2 km
B*
3.6330e-4
RAAN
311.5253°
Arg perigee
255.2827°
Mean anomaly
104.7939°
Rev number
4,086

§ Raw data

STARLINK-364501 67317U 26002N   26262.42195857  .00009752  00000+0  36330-3 0  99932 67317  43.0005 311.5253 0000778 255.2827 104.7939 15.27591635 40866

JSON: /api/v1/satellites/67317 · /tle

For live sub-satellite position, see the globe view (requires WebGL).

§ Visibility from observer

Set your observer location to see the next 7 days of passes ≥ 10°. The values pass through the URL so the page stays shareable.

No JS? Fill the form by hand. The geolocation button needs JavaScript.